Location: Newark
(13.0328°N, 9.6142°E)
Time: 07:17:12
(UTC+00:00)

OTV 5 (USA 277) - Visible Passes

Search period start: 23 October 2019 00:00
Search period end: 02 November 2019 00:00
Orbit: 310 x 324 km, 54.5° (Epoch: 17 October)

Date Brightness Start Highest point End Pass type
(mag) Time Alt. Az. Time Alt. Az. Time Alt. Az.
23 Oct ? 04:20:36 10° NNE 04:22:22 16° NE 04:24:08 10° E visible
23 Oct ? 17:20:59 10° SSE 17:22:27 14° ESE 17:23:54 10° E visible
24 Oct ? 04:34:12 10° NNW 04:36:55 80° ENE 04:39:36 10° SE visible
24 Oct ? 17:34:12 10° SSW 17:36:52 69° ESE 17:39:17 12° NE visible
25 Oct ? 04:49:22 10° WNW 04:51:20 18° WSW 04:53:19 10° S visible
25 Oct ? 17:49:15 10° WSW 17:51:22 21° NW 17:53:30 10° N visible
26 Oct ? 03:33:18 18° ESE 03:33:18 18° ESE 03:34:13 10° ESE visible
27 Oct ? 03:48:28 12° SSE 03:48:28 12° SSE 03:48:47 10° SSE visible
